COSMOS 1275 DEB, 12675

Orbit data source: Space-Track

COSMOS 1275 DEB, 12675 is space debris in LEO originally from a launch on Thu, 04 Jun 1981 UTC launched from the Plesetsk Missile And Space Complex (PKMTR). Debris objects in space refer to the collection of defunct objects orbiting the Earth. Examples of debris include non-operational satellites, rocket bodies, and fragments generated from explosions, collisions, or faulty payload assembly.

Loading next visibility...
Identifier
12675, 1981-053AF
Orbit
LEO
Country
Flag of CISCIS
Related business
Manufacturer
Unknown
Mission
Spacecraft
Bus & Motor
Unknown
Mass
Unknown
Launch date (UTC)
1981-06-04 (45 years ago)
Launch vehicle
Unknown
Launch site
Plesetsk Missile And Space Complex (PKMTR)
Object type
Payload
Rocket body
Debris
Shape & HBR
Unknown shape, 0.3 m
Radar Cross Section
Medium (>0.1 m² and <1 m²)

Expand to show TLE details & history
Last TLE update: 11 hours ago

TLE from 11 hours ago
0 COSMOS 1275 DEB
1 12675U 81053AF  26074.19255669  .00000619  00000-0  56434-3 0  9991
2 12675  82.9389 332.6669 0062893 188.5052 287.2239 13.80899080235575
Epoch: 2026-03-15T04:37Z
TLE epoch observation values (Epoch: 2026-03-15T04:37:16.898Z)
Latitude
64.1338°
Longitude
-104.17942°
Altitude
958.348 km
Speed
7.385 km/s
True Right ascension
09h 11m 46s
True Declination
64° 00' 08"
Sunlit
Object was in daylight at epoch
Visualization orbit readout
Latitude
Unknown
Longitude
Unknown
Altitude
Unknown
Speed
Unknown
Apparent Right ascension
Unknown
Apparent Declination
Unknown
Sunlit
N/A
Visualization observer readout
Local Sidereal Time
19:53:46
Azimuth
Unknown
Elevation
Unknown
Doppler factor
Unknown
Orbital elements
Apogee altitude
1,003.978 km
Perigee altitude
911.702 km
Semi-major axis
7,335.977 km
Eccentricity
0.00629
Inclination
82.9389°
RAAN
332.6669°
Arg. of periapsis
188.5052°
True anomaly
286.53393°
Mean anomaly
287.2239°
Eccentric anomaly
286.87907°
Mean motion
3.45427 °/min
Orbital period
104.22 mins
BSTAR
0.00056434
Loading maneuver chart data...
Computing Atmospheric mass density...

Documentation

Showing up to 5 results
|